Weather History for Glenwood, MN

Change the Weather History Date:

Tuesday, June 25, 2013

  Actual Average Record
Temperature  
Mean Temperature 75 °F -  
Max Temperature 86 °F 79 °F 96 °F (2001)
Min Temperature 64 °F 57 °F 40 °F (1958)
Cooling Degree Days 10    
Growing Degree Days 25 (Base 50)    
Moisture  
Dew Point 68 °F    
Average Humidity 82    
Maximum Humidity 100    
Minimum Humidity 62    
Precipitation  
Precipitation 0.00 in - - ()
Sea Level Pressure  
Sea Level Pressure 29.77 in    
Wind  
Wind Speed 9 mph (SE)    
Max Wind Speed 17 mph    
Max Gust Speed 20 mph    
Visibility 10 miles    
Events      
Averages and records for this station are not official NWS values.
T = Trace of Precipitation, MM = Missing Value Source: NWS Daily Summary

Daily Weather History Graph

Daily Weather History Graph

Search for Another Location

Airport:

Trip Planner

Search our weather history database for the weather conditions in past years. The results will help you decide how hot, cold, wet, or windy it might be!

Date:

Astronomy

Jun. 25, 2013 Rise Set
Actual Time 5:33 AM CDT 9:14 PM CDT
Civil Twilight 4:55 AM CDT 9:52 PM CDT
Nautical Twilight 4:03 AM CDT 10:43 PM CDT
Astronomical Twilight 2:54 AM CDT 11:53 PM CDT
Moon 10:49 PM CDT (6/25) 8:22 AM CDT (6/25)
Length of Visible Light 16h 57m
Length of Day
15h 41m
Waning Gibbous, 92% of the Moon is Illuminated
Jun 25
Waning Gibbous
Jun 29
Last Quarter
Jul 8
New
Jul 15
First Quarter
Jul 22
Full

Hourly Weather History & Observations

Time (CDT) Temp. Heat Index Dew Point Humidity Pressure Visibility Wind Dir Wind Speed Gust Speed Precip Events Conditions
12:01 AM 66.2 °F - 64.4 °F 94% 29.82 in 7.0 mi SE 6.9 mph - N/A   Clear
12:31 AM 66.2 °F - 66.2 °F 100% 29.81 in 10.0 mi SE 6.9 mph - N/A   Clear
12:46 AM 66.2 °F - 64.4 °F 94% 29.81 in 10.0 mi SE 8.1 mph - N/A   Clear
1:01 AM 66.2 °F - 64.4 °F 94% 29.81 in 10.0 mi SE 8.1 mph - N/A   Clear
1:21 AM 66.2 °F - 64.4 °F 94% 29.82 in 10.0 mi SSE 9.2 mph - N/A   Clear
1:45 AM 66.2 °F - 64.4 °F 94% 29.81 in 10.0 mi SE 8.1 mph - N/A   Clear
2:05 AM 66.2 °F - 64.4 °F 94% 29.82 in 10.0 mi SSE 9.2 mph - N/A   Clear
2:21 AM 66.2 °F - 64.4 °F 94% 29.82 in 10.0 mi SSE 8.1 mph - N/A   Clear
2:41 AM 66.2 °F - 64.4 °F 94% 29.82 in 10.0 mi SE 6.9 mph - N/A   Clear
3:01 AM 66.2 °F - 64.4 °F 94% 29.82 in 10.0 mi SE 5.8 mph - N/A   Clear
3:21 AM 66.2 °F - 64.4 °F 94% 29.82 in 10.0 mi SE 5.8 mph - N/A   Clear
3:41 AM 64.4 °F - 64.4 °F 100% 29.82 in 7.0 mi SE 5.8 mph - N/A   Clear
4:01 AM 64.4 °F - 64.4 °F 100% 29.80 in 7.0 mi ESE 5.8 mph - N/A   Clear
4:21 AM 64.4 °F - 62.6 °F 94% 29.79 in 7.0 mi East 6.9 mph - N/A   Clear
4:41 AM 64.4 °F - 62.6 °F 94% 29.78 in 7.0 mi East 8.1 mph - N/A   Clear
5:01 AM 64.4 °F - 62.6 °F 94% 29.78 in 7.0 mi East 5.8 mph - N/A   Clear
5:21 AM 64.4 °F - 62.6 °F 94% 29.78 in 7.0 mi East 6.9 mph - N/A   Clear
5:41 AM 64.4 °F - 62.6 °F 94% 29.79 in 7.0 mi East 5.8 mph - N/A   Clear
6:01 AM 64.4 °F - 62.6 °F 94% 29.79 in 7.0 mi ESE 9.2 mph - N/A   Clear
6:21 AM 64.4 °F - 62.6 °F 94% 29.79 in 10.0 mi SE 8.1 mph - N/A   Clear
6:41 AM - - - N/A% 29.79 in 10.0 mi SE 8.1 mph - N/A   Clear
7:01 AM 64.4 °F - 62.6 °F 94% 29.79 in 10.0 mi SE 8.1 mph - N/A   Clear
7:21 AM 66.2 °F - 64.4 °F 94% 29.79 in 10.0 mi SE 9.2 mph - N/A   Clear
7:41 AM 66.2 °F - 64.4 °F 94% 29.79 in 10.0 mi SE 6.9 mph - N/A   Clear
8:01 AM 68.0 °F - 66.2 °F 94% 29.79 in 10.0 mi SE 8.1 mph - N/A   Clear
8:21 AM 69.8 °F - 66.2 °F 88% 29.78 in 10.0 mi SE 8.1 mph - N/A   Clear
8:41 AM 71.6 °F - 66.2 °F 83% 29.78 in 10.0 mi SE 10.4 mph - N/A   Clear
9:01 AM 71.6 °F - 66.2 °F 83% 29.78 in 10.0 mi SE 10.4 mph - N/A   Scattered Clouds
9:21 AM 73.4 °F - 66.2 °F 78% 29.79 in 10.0 mi SE 10.4 mph - N/A   Scattered Clouds
9:41 AM 73.4 °F - 68.0 °F 83% 29.79 in 10.0 mi SE 10.4 mph - N/A   Scattered Clouds
10:01 AM 75.2 °F - 68.0 °F 78% 29.79 in 10.0 mi ESE 11.5 mph - N/A   Scattered Clouds
10:21 AM 75.2 °F - 69.8 °F 83% 29.78 in 10.0 mi SSE 16.1 mph 19.6 mph N/A   Clear
10:41 AM 75.2 °F - 68.0 °F 78% 29.79 in 10.0 mi SSE 17.3 mph - N/A   Mostly Cloudy
11:01 AM 75.2 °F - 68.0 °F 78% 29.79 in 10.0 mi SSE 12.7 mph - N/A   Overcast
11:21 AM 77.0 °F - 69.8 °F 78% 29.78 in 10.0 mi SE 13.8 mph - N/A   Mostly Cloudy
11:41 AM 78.8 °F - 69.8 °F 74% 29.79 in 10.0 mi SE 15.0 mph - N/A   Scattered Clouds
12:01 PM 78.8 °F - 69.8 °F 74% 29.79 in 10.0 mi SE 15.0 mph - N/A   Scattered Clouds
12:21 PM 80.6 °F 83.9 °F 69.8 °F 70% 29.79 in 10.0 mi SSE 13.8 mph 19.6 mph N/A   Clear
12:41 PM 80.6 °F 83.9 °F 69.8 °F 70% 29.79 in 10.0 mi SE 12.7 mph - N/A   Clear
1:01 PM 82.4 °F 86.3 °F 69.8 °F 66% 29.78 in 10.0 mi SSE 10.4 mph 18.4 mph N/A   Scattered Clouds
1:21 PM 82.4 °F 86.3 °F 69.8 °F 66% 29.78 in 10.0 mi SSE 11.5 mph - N/A   Clear
1:41 PM 82.4 °F 86.3 °F 69.8 °F 66% 29.77 in 10.0 mi SSE 13.8 mph 17.3 mph N/A   Clear
2:01 PM 84.2 °F 88.4 °F 69.8 °F 62% 29.77 in 10.0 mi SE 11.5 mph 18.4 mph N/A   Clear
2:21 PM 84.2 °F 88.4 °F 69.8 °F 62% 29.77 in 10.0 mi SE 10.4 mph - N/A   Clear
2:41 PM 82.4 °F 86.3 °F 69.8 °F 66% 29.77 in 10.0 mi SE 8.1 mph - N/A   Scattered Clouds
3:01 PM 84.2 °F 89.6 °F 71.6 °F 66% 29.77 in 10.0 mi SSE 8.1 mph - N/A   Scattered Clouds
3:21 PM 84.2 °F 89.6 °F 71.6 °F 66% 29.77 in 10.0 mi SE 9.2 mph - N/A   Clear
3:41 PM 86.0 °F 93.4 °F 73.4 °F 66% 29.76 in 10.0 mi SE 6.9 mph - N/A   Scattered Clouds
4:01 PM 84.2 °F 89.6 °F 71.6 °F 66% 29.75 in 10.0 mi East 9.2 mph - N/A   Scattered Clouds
4:23 PM 84.2 °F 89.6 °F 71.6 °F 66% 29.75 in 10.0 mi ESE 10.4 mph - N/A   Clear
4:41 PM 84.2 °F 89.6 °F 71.6 °F 66% 29.75 in 10.0 mi SE 8.1 mph - N/A   Clear
5:02 PM 84.2 °F 89.6 °F 71.6 °F 66% 29.75 in 10.0 mi SE 9.2 mph - N/A   Clear
5:25 PM 84.2 °F 89.6 °F 71.6 °F 66% 29.75 in 10.0 mi ESE 12.7 mph 16.1 mph N/A   Clear
5:41 PM 84.2 °F 89.6 °F 71.6 °F 66% 29.75 in 10.0 mi ESE 12.7 mph - N/A   Clear
6:01 PM 82.4 °F 87.2 °F 71.6 °F 70% 29.74 in 10.0 mi ESE 12.7 mph - N/A   Clear
6:41 PM 82.4 °F 87.2 °F 71.6 °F 70% 29.74 in 10.0 mi ESE 16.1 mph - N/A   Clear
6:42 PM 82.4 °F 87.2 °F 71.6 °F 70% 29.74 in 10.0 mi ESE 15.0 mph - N/A   Clear
7:11 PM 82.4 °F 87.2 °F 71.6 °F 70% 29.73 in 10.0 mi ESE 16.1 mph - N/A   Clear
7:21 PM 82.4 °F 87.2 °F 71.6 °F 70% 29.73 in 10.0 mi ESE 13.8 mph 19.6 mph N/A   Clear
7:41 PM 80.6 °F 84.6 °F 71.6 °F 74% 29.73 in 10.0 mi ESE 11.5 mph 18.4 mph N/A   Clear
8:01 PM 80.6 °F 84.6 °F 71.6 °F 74% 29.72 in 10.0 mi ESE 10.4 mph - N/A   Clear
8:21 PM 78.8 °F - 71.6 °F 78% 29.71 in 10.0 mi SE 9.2 mph - N/A   Clear
8:41 PM 77.0 °F - 71.6 °F 83% 29.71 in 10.0 mi SE 8.1 mph - N/A   Clear
9:01 PM 77.0 °F - 71.6 °F 83% 29.71 in 10.0 mi ESE 6.9 mph - N/A   Clear
9:21 PM 75.2 °F - 71.6 °F 89% 29.71 in 10.0 mi ESE 5.8 mph - N/A   Clear
9:41 PM 75.2 °F - 71.6 °F 89% 29.71 in 10.0 mi ESE 5.8 mph - N/A   Clear
10:01 PM 75.2 °F - 71.6 °F 89% 29.72 in 10.0 mi ESE 5.8 mph - N/A   Clear
10:25 PM 73.4 °F - 71.6 °F 94% 29.73 in 10.0 mi East 4.6 mph - N/A   Clear
10:41 PM 73.4 °F - 71.6 °F 94% 29.72 in 10.0 mi ESE 6.9 mph - N/A   Clear
11:01 PM 73.4 °F - 71.6 °F 94% 29.77 in 10.0 mi ESE 6.9 mph - N/A   Clear
11:21 PM 73.4 °F - 71.6 °F 94% 29.70 in 10.0 mi ESE 8.1 mph - N/A   Clear
11:53 PM 73.4 °F - 71.6 °F 94% 29.71 in 10.0 mi SE 6.9 mph - N/A   Clear